ONEWEB-0670, 55829

Orbit data source: Space-Track

ONEWEB-0670, 55829 is a payload satellite owned by One Web (NAA) (UK) in LEO that was launched on Thu, 09 Mar 2023 UTC via an FALCON 9 launch vehicle from the Air Force Eastern Test Range (AFETR). Payload-class satellites include a variety of spacecraft equipped with specific instruments for various scientific and technological missions. These include communications satellites like Starlink; space stations such as the ISS; scientific satellites like the Hubble; Earth observation satellites from companies like Planet Labs, Umbra, and HawkEye 360; GPS; miniature CubeSats for education and research; and military/defense satellites.

Loading next visibility...
Identifier
55829, 2023-029AK
Orbit
LEO
Country
Flag of UKUK
Related business
Manufacturer
One Web
Mission
Operational Commercial Communications
Bus & Motor
ARROW, Unknown motor
Mass
148 kg wet, ~140 kg dry
Launch date (UTC)
2023-03-09 (3 years ago)
Launch vehicle
FALCON 9
Launch site
Air Force Eastern Test Range (AFETR)
Object type
Payload
Rocket body
Debris
Shape & HBR
Trap Box + 2 Pan, 6.7 m
Radar Cross Section
3.464 m², Large (>1 m²)

Expand to show TLE details & history
Last TLE update: 2 days ago

TLE from 2 days ago
0 ONEWEB-0670
1 55829U 23029AK  26171.33312447  .00000119  00000-0  28734-3 0  9997
2 55829  87.8959 289.1135 0001611  91.1110 269.0204 13.14502864159842
Epoch: 2026-06-20T07:59Z
TLE epoch observation values (Epoch: 2026-06-20T07:59:41.954Z)
Latitude
-0.00004°
Longitude
-99.36056°
Altitude
1,208.705 km
Speed
7.25 km/s
True Right ascension
19h 16m 27s
True Declination
0° 00' 00"
Sunlit
Object was in full shadow at epoch
Visualization orbit readout
Latitude
Unknown
Longitude
Unknown
Altitude
Unknown
Speed
Unknown
Apparent Right ascension
Unknown
Apparent Declination
Unknown
Sunlit
N/A
Visualization observer readout
Local Sidereal Time
21:36:57
Azimuth
Unknown
Elevation
Unknown
Doppler factor
Unknown
Orbital elements
Apogee altitude
1,204.125 km
Perigee altitude
1,201.682 km
Semi-major axis
7,581.041 km
Eccentricity
0.00016
Inclination
87.8959°
RAAN
289.1135°
Arg. of periapsis
91.111°
True anomaly
269.00194°
Mean anomaly
269.0204°
Eccentric anomaly
269.01117°
Mean motion
3.28814 °/min
Orbital period
109.48 mins
BSTAR
0.00028734
Loading maneuver chart data...
Computing Atmospheric mass density...
Loading historical data...
Loading historical data...
Loading historical data...
Loading historical data...
Loading historical data...
Loading historical data...
Loading historical data...

Documentation

Showing up to 5 results
|